Погода в Красной Беларуси

Беларусь     53°25′13″N   30°09′23″E
темп.,
°C
ветер,
м/с
пор.,
м/с
влажн.,
%
обл.,
%
осадки,
мм/ч
давл.,
гПа
погр.,
м
15 апреля, чт
чт1500:00+9св2282100 0.0 101520
03:00+9ссв2385100 0.3 101557
06:00+8ссв3595100 1.6 1014183
09:00+8с51098100 8.1 1013391
12:00+12всв478386 4.5 1012749
15:00+14в356866 5.4 10111159
18:00+11ссв3793100 4.6 1010299
21:00+9вюв22924 13.1 101124
16 апреля, пт
пт1600:00+8вюв36945 0.3 1012125
03:00+6всв349277 0.3 101362
06:00+8св31094100 0.2 1012292
09:00+10в698065 0.4 1013800
12:00+13вюв696260 0.1 10141577
15:00+14вюв695771 0.7 10141627
18:00+13вюв58665 0.6 10141088
21:00+9вюв358018 0.8 101668
17 апреля, сб
сб1700:00+7в34865 0.0 101761
03:00+6в23915 0.0 101840
06:00+5в229045 0.0 101913
09:00+9св2278100 0.0 1020239
12:00+13в2364100 0.0 1020943
15:00+15в3549100 0.1 10201711
18:00+11в4682100 1.3 1021274
21:00+10всв2695100 4.6 1021381
18 апреля, вс
вс1800:00+10всв4994100 6.9 1021701
03:00+10ююв1296100 7.6 1021211
06:00+9всв1396100 1.0 1021210
09:00+9в5895100 1.8 1022418
12:00+10вюв469098 0.4 1023541
15:00+12юв237880 1.4 1024723
18:00+10в4790100 0.6 1024390
21:00+9в369475 1.4 1024203
19 апреля, пн
пн1900:00+9в399498 0.8 1024316
03:00+9в4118899 1.2 1024388
06:00+8в51088100 0.5 1023356
09:00+9в61283100 1.1 1023537
12:00+13вюв71164100 0.0 10221421
15:00+14в7116374 0.1 10211739
18:00+12в71264100 0.1 1019892
21:00+11в71368100 0.2 1018696